{"data":{"norad_id":63850,"intl_designator":"2025-093Q","name":"STARLINK-33958","alt_names":[],"object_type":"PAYLOAD","status":"ACTIVE","operator":null,"country":"US","launch_date":"2025-05-07","launch_site_code":"AFETR","launch_vehicle":null,"mission":null,"orbit_class":"UNKNOWN","rcs_meters":null,"size_class":null,"mass_kg":null,"dimensions":null,"purposes":["comms"],"wikipedia_slug":null,"has_3d_model":false,"image_url":null,"decayed_at":null,"tle_current":{"epoch":"2026-05-24T21:33:23.904576Z","epoch_age_seconds":74099,"freshness":"FRESH","line1":"1 63850U 25093Q   26144.89819334  .00015085  00000+0  55636-3 0  9999","line2":"2 63850  43.0006   7.8307 0001421 277.1571  82.9119 15.27593794 59466","mean_motion":15.27593794,"eccentricity":0.0001421,"inclination_deg":43.0006,"raan_deg":7.8307,"arg_perigee_deg":277.1571,"mean_anomaly_deg":82.9119,"bstar":0.00055636,"rev_number":5946,"period_min":94.265897495522,"perigee_km":482.03282347713,"apogee_km":483.98276082706,"semimajor_km":6861.1447921521,"source":"CELESTRAK","updated_at":"2026-05-25T13:38:20.149161Z"}}}